When you browse on this site, cookies collect data to enhance your experience and personalize the content and advertising you see.
Visit our Privacy Policy to learn more. By continuing to use the site, you agree to this use of cookies and data.
  • în România
  • Lista ţărilor
  • Pe 7 zile
  • Temperatura apei
  • Hartă satelitară
  • Meteo pe hartă
  • Widget-uri
  • user-avatar
    Intrare

    Meteo pe oră la Mendoza

    Astăzi, 24 Martie, Duminică

    Timp Temperatura Precipitaţii Vânt Presiune Umiditate
    00:00 +23°C° 0 mm 4 m/s 702 mmHg 49%
    01:00 +22°C° 0 mm 5 m/s 702 mmHg 50%
    02:00 +22°C° 0 mm 5 m/s 702 mmHg 46%
    03:00 +21°C° 0 mm 4 m/s 702 mmHg 43%
    04:00 +21°C° 0 mm 4 m/s 702 mmHg 39%
    05:00 +21°C° 0 mm 4 m/s 702 mmHg 36%
    06:00 +20°C° 0 mm 4 m/s 702 mmHg 34%
    07:00 +20°C° 0 mm 4 m/s 703 mmHg 31%
    08:00 +21°C° 0 mm 4 m/s 703 mmHg 29%
    09:00 +22°C° 0 mm 4 m/s 703 mmHg 28%
    10:00 +23°C° 0 mm 4 m/s 703 mmHg 26%
    11:00 +25°C° 0 mm 4 m/s 702 mmHg 26%
    12:00 +26°C° 0 mm 4 m/s 702 mmHg 25%
    13:00 +26°C° 0 mm 3 m/s 701 mmHg 25%
    14:00 +26°C° 0 mm 3 m/s 701 mmHg 26%
    15:00 +27°C° 0 mm 3 m/s 700 mmHg 26%
    16:00 +27°C° 0 mm 3 m/s 700 mmHg 27%
    17:00 +25°C° 0 mm 3 m/s 700 mmHg 29%
    18:00 +24°C° 0 mm 2 m/s 700 mmHg 31%
    19:00 +23°C° 0 mm 2 m/s 700 mmHg 34%
    20:00 +21°C° 0 mm 2 m/s 701 mmHg 35%
    21:00 +21°C° 0 mm 2 m/s 701 mmHg 36%
    22:00 +20°C° 0 mm 2 m/s 701 mmHg 37%
    23:00 +19°C° 0 mm 2 m/s 700 mmHg 39%

    Mâine, 25 Martie, Luni

    Timp Temperatura Precipitaţii Vânt Presiune Umiditate
    00:00 +19°C° 0 mm 3 m/s 700 mmHg 41%
    01:00 +18°C° 0 mm 3 m/s 700 mmHg 43%
    02:00 +18°C° 0 mm 3 m/s 700 mmHg 44%
    03:00 +17°C° 0 mm 3 m/s 699 mmHg 46%
    04:00 +17°C° 0 mm 4 m/s 699 mmHg 48%
    05:00 +17°C° 0 mm 4 m/s 699 mmHg 47%
    06:00 +18°C° 0 mm 4 m/s 700 mmHg 46%
    07:00 +17°C° 0 mm 5 m/s 700 mmHg 44%
    08:00 +20°C° 0 mm 4 m/s 700 mmHg 41%
    09:00 +21°C° 0 mm 4 m/s 700 mmHg 37%
    10:00 +23°C° 0 mm 4 m/s 701 mmHg 34%
    11:00 +23°C° 0 mm 4 m/s 700 mmHg 33%
    12:00 +25°C° 0 mm 4 m/s 700 mmHg 32%
    13:00 +26°C° 0 mm 4 m/s 699 mmHg 31%
    14:00 +26°C° 0 mm 4 m/s 699 mmHg 32%
    15:00 +26°C° 0 mm 4 m/s 699 mmHg 32%
    16:00 +26°C° 0 mm 3 m/s 699 mmHg 33%
    17:00 +25°C° 0 mm 4 m/s 699 mmHg 36%
    18:00 +23°C° 0 mm 4 m/s 700 mmHg 39%
    19:00 +22°C° 0 mm 4 m/s 700 mmHg 42%
    20:00 +22°C° 0 mm 4 m/s 701 mmHg 47%
    21:00 +21°C° 0 mm 5 m/s 701 mmHg 53%
    22:00 +20°C° 0 mm 5 m/s 702 mmHg 58%
    23:00 +20°C° 0.1 mm 5 m/s 702 mmHg 62%

    Poimâine, 26 Martie, Marţi

    Timp Temperatura Precipitaţii Vânt Presiune Umiditate
    00:00 +19°C° 0.1 mm 5 m/s 701 mmHg 65%
    01:00 +19°C° 0.1 mm 5 m/s 701 mmHg 68%
    02:00 +17°C° 0 mm 5 m/s 701 mmHg 69%
    03:00 +17°C° 0 mm 5 m/s 701 mmHg 70%
    04:00 +17°C° 0 mm 5 m/s 701 mmHg 71%
    05:00 +16°C° 0 mm 5 m/s 701 mmHg 71%
    06:00 +16°C° 0 mm 5 m/s 701 mmHg 71%
    07:00 +16°C° 0 mm 5 m/s 702 mmHg 71%
    08:00 +16°C° 0 mm 5 m/s 702 mmHg 70%
    09:00 +16°C° 0 mm 5 m/s 702 mmHg 69%
    10:00 +16°C° 0 mm 5 m/s 702 mmHg 67%
    11:00 +17°C° 0 mm 5 m/s 701 mmHg 65%
    12:00 +19°C° 0 mm 6 m/s 701 mmHg 62%
    13:00 +20°C° 0 mm 6 m/s 700 mmHg 59%
    14:00 +19°C° 0 mm 6 m/s 700 mmHg 60%
    15:00 +19°C° 0 mm 6 m/s 700 mmHg 61%
    16:00 +19°C° 0 mm 6 m/s 700 mmHg 62%
    17:00 +17°C° 0 mm 5 m/s 700 mmHg 65%
    18:00 +17°C° 0 mm 5 m/s 701 mmHg 67%
    19:00 +16°C° 0 mm 5 m/s 701 mmHg 69%
    20:00 +17°C° 0 mm 4 m/s 701 mmHg 70%
    21:00 +17°C° 0 mm 4 m/s 702 mmHg 71%
    22:00 +17°C° 0 mm 4 m/s 702 mmHg 72%
    23:00 +17°C° 0 mm 4 m/s 702 mmHg 74%

    27 Martie, Miercuri

    Timp Temperatura Precipitaţii Vânt Presiune Umiditate
    00:00 +15°C° 0 mm 4 m/s 701 mmHg 76%
    01:00 +16°C° 0 mm 3 m/s 701 mmHg 78%
    02:00 +16°C° 0 mm 3 m/s 701 mmHg 80%
    03:00 +15°C° 0 mm 2 m/s 700 mmHg 81%
    04:00 +15°C° 0 mm 2 m/s 700 mmHg 83%
    05:00 +16°C° 0 mm 2 m/s 700 mmHg 81%
    06:00 +16°C° 0 mm 1 m/s 701 mmHg 79%
    07:00 +18°C° 0 mm 1 m/s 701 mmHg 78%
    08:00 +19°C° 0 mm 1 m/s 701 mmHg 73%
    09:00 +19°C° 0 mm 2 m/s 701 mmHg 68%
    10:00 +20°C° 0 mm 3 m/s 701 mmHg 63%
    11:00 +21°C° 0 mm 3 m/s 700 mmHg 60%
    12:00 +22°C° 0 mm 3 m/s 700 mmHg 57%
    13:00 +24°C° 0 mm 3 m/s 699 mmHg 54%
    14:00 +24°C° 0 mm 3 m/s 699 mmHg 52%
    15:00 +24°C° 0 mm 2 m/s 699 mmHg 50%
    16:00 +25°C° 0 mm 2 m/s 699 mmHg 48%
    17:00 +24°C° 0 mm 2 m/s 700 mmHg 50%
    18:00 +23°C° 0 mm 2 m/s 700 mmHg 53%
    19:00 +22°C° 0 mm 1 m/s 701 mmHg 56%
    20:00 +21°C° 0 mm 1 m/s 701 mmHg 59%
    21:00 +20°C° 0 mm 2 m/s 701 mmHg 62%
    22:00 +19°C° 0 mm 2 m/s 701 mmHg 64%
    23:00 +20°C° 0 mm 1 m/s 701 mmHg 67%

    28 Martie, Joi

    Timp Temperatura Precipitaţii Vânt Presiune Umiditate
    00:00 +19°C° 0 mm 1 m/s 700 mmHg 69%
    01:00 +18°C° 0 mm 1 m/s 700 mmHg 72%
    02:00 +18°C° 0 mm 1 m/s 700 mmHg 73%
    03:00 +18°C° 0 mm 1 m/s 700 mmHg 74%
    04:00 +16°C° 0 mm 1 m/s 700 mmHg 76%
    05:00 +18°C° 0 mm 1 m/s 700 mmHg 73%
    06:00 +19°C° 0 mm 1 m/s 700 mmHg 70%
    07:00 +19°C° 0 mm 1 m/s 701 mmHg 67%
    08:00 +21°C° 0 mm 1 m/s 701 mmHg 62%
    09:00 +21°C° 0 mm 2 m/s 701 mmHg 57%
    10:00 +24°C° 0 mm 2 m/s 701 mmHg 51%
    11:00 +25°C° 0 mm 2 m/s 701 mmHg 48%
    12:00 +26°C° 0 mm 2 m/s 701 mmHg 45%
    13:00 +27°C° 0 mm 3 m/s 700 mmHg 42%
    14:00 +27°C° 0 mm 2 m/s 700 mmHg 41%
    15:00 +27°C° 0 mm 2 m/s 700 mmHg 40%
    16:00 +27°C° 0 mm 2 m/s 700 mmHg 39%
    17:00 +26°C° 0 mm 2 m/s 701 mmHg 42%
    18:00 +25°C° 0 mm 2 m/s 701 mmHg 45%
    19:00 +24°C° 0 mm 1 m/s 701 mmHg 48%
    20:00 +23°C° 0 mm 1 m/s 701 mmHg 50%
    21:00 +23°C° 0 mm 1 m/s 701 mmHg 52%
    22:00 +22°C° 0 mm 1 m/s 701 mmHg 54%
    23:00 +22°C° 0 mm 1 m/s 701 mmHg 55%

    29 Martie, Vineri

    Timp Temperatura Precipitaţii Vânt Presiune Umiditate
    00:00 +21°C° 0 mm 1 m/s 701 mmHg 56%
    01:00 +21°C° 0 mm 1 m/s 700 mmHg 57%
    02:00 +20°C° 0 mm 1 m/s 700 mmHg 59%
    03:00 +18°C° 0 mm 0 m/s 700 mmHg 61%
    04:00 +17°C° 0 mm 0 m/s 699 mmHg 63%
    05:00 +18°C° 0 mm 0 m/s 700 mmHg 58%
    06:00 +22°C° 0 mm 1 m/s 700 mmHg 53%
    07:00 +23°C° 0 mm 1 m/s 701 mmHg 47%
    08:00 +25°C° 0 mm 2 m/s 700 mmHg 42%
    09:00 +26°C° 0 mm 3 m/s 700 mmHg 37%
    10:00 +28°C° 0 mm 4 m/s 700 mmHg 32%
    11:00 +29°C° 0 mm 4 m/s 699 mmHg 30%
    12:00 +30°C° 0 mm 5 m/s 698 mmHg 28%
    13:00 +30°C° 0 mm 5 m/s 698 mmHg 27%
    14:00 +30°C° 0 mm 4 m/s 697 mmHg 27%
    15:00 +30°C° 0 mm 4 m/s 697 mmHg 27%
    16:00 +30°C° 0 mm 4 m/s 697 mmHg 27%
    17:00 +29°C° 0 mm 3 m/s 697 mmHg 30%
    18:00 +27°C° 0 mm 2 m/s 697 mmHg 33%
    19:00 +25°C° 0 mm 2 m/s 697 mmHg 36%
    20:00 +25°C° 0 mm 1 m/s 697 mmHg 38%
    21:00 +24°C° 0 mm 1 m/s 697 mmHg 41%
    22:00 +24°C° 0 mm 1 m/s 697 mmHg 43%
    23:00 +23°C° 0 mm 1 m/s 697 mmHg 46%
    Arată mai mult